Location: Doverdale
(52.2833°N, 2.2000°W)
Time: 03:59:22
(UTC+00:00)

Cosmos 2082 - Pass Details

Date: 29 October 2020
Orbit: 832 x 857 km, 71.0° (Epoch: 25 November)

Event Time Altitude Azimuth Distance (km) Brightness Sun altitude
Rises 18:08:48 0° 329° (NNW) 3,437 7.2 -13.3°
Reaches altitude 10° 18:11:16 10° 330° (NNW) 2,499 6.5 -13.7°
Maximum altitude 18:17:02 82° 58° (ENE) 873 3.7 -14.6°
Drops below altitude 10° 18:22:46 10° 147° (SSE) 2,486 5.9 -15.5°
Sets 18:25:13 0° 148° (SSE) 3,418 6.6 -15.8°
